sat.trackr.live / text

‹ back to catalog

STARLINK-31092

NORAD 58628 · 2023-203L

PAYLOAD ACTIVE UNKNOWN

§ Identity

Operator
Country
US
Launch date
2023-12-23
Launch site
AFETR
Launch vehicle
Mass (kg)
RCS (m²)

Purposes: comms

External: N2YO · Heavens-Above · Gunter

§ Orbital elements

Epoch: 2026-09-16T11:52:49.067904Z

Period
94.27 min
Inclination
43.0007°
Eccentricity
0.0000993
Mean motion
15.27586892 rev/d
Perigee alt
482.3 km
Apogee alt
483.7 km
Semi-major
6,861.2 km
B*
1.2277e-5
RAAN
69.4319°
Arg perigee
273.8127°
Mean anomaly
86.2611°
Rev number
15,274

§ Raw data

STARLINK-310921 58628U 23203L   26259.49501236  .00000076  00000+0  12277-4 0  99982 58628  43.0007  69.4319 0000993 273.8127  86.2611 15.27586892152744

JSON: /api/v1/satellites/58628 · /tle

For live sub-satellite position, see the globe view (requires WebGL).

§ Visibility from observer

Set your observer location to see the next 7 days of passes ≥ 10°. The values pass through the URL so the page stays shareable.

No JS? Fill the form by hand. The geolocation button needs JavaScript.